Hourly Data Report for July 16, 2021

BONAVISTA
NEWFOUNDLAND
Current Station Operator: ECCC - MSC

48°40'02.000" N
53°06'51.000" W
25.60 m
8400601
71178
AVA

Download Data

Hourly Data (July 2021)
Hourly Data Report for July 16, 2021
TIME
LST
Temp Definition
°C
Dew Point Definition
°C
Rel Hum Definition
%
Precip. Amount Definition
mm

Wind Dir Definition
10's deg

Wind Spd Definition
km/h
Visibility Definition
km
Stn Press Definition
kPa
Hmdx Definition


Wind Chill Definition


Weather Definition


00:30 15.6 12.7 83 0.0 23 36   101.71     LegendNANA
01:30 15.4 12.7 84 0.0 23 34   101.69     LegendNANA
02:30 15.3 12.6 84 0.0 23 36   101.67     LegendNANA
03:30 15.4 12.7 84 0.0 23 33   101.68     LegendNANA
04:30 15.4 12.6 84 0.0 23 35   101.66     LegendNANA
05:30 15.3 12.6 84 0.0 22 33   101.67     LegendNANA
06:30 15.7 12.8 83 0.0 22 28   101.70     LegendNANA
07:30 17.3 13.2 77 0.0 22 23   101.70     LegendNANA
08:30 17.7 13.6 77 0.0 23 25   101.68     LegendNANA
09:30 19.5 14.1 71 0.0 23 30   101.64     LegendNANA
10:30 21.4 14.5 65 0.0 22 24   101.63 25   LegendNANA
11:30 21.5 14.5 64 0.0 23 22   101.60 25   LegendNANA
12:30 24.4 15.3 57 0.0 22 21   101.55 29   LegendNANA
13:30 25.0 15.4 55 0.0 21 25   101.54 29   LegendNANA
14:30 25.5 15.1 53 0.0 21 28   101.51 30   LegendNANA
15:30 23.0 15.4 62 0.0 19 29   101.48 27   LegendNANA
16:30 22.6 15.5 64 0.0 21 33   101.46 27   LegendNANA
17:30 22.7 14.4 59 0.0 21 33   101.46 26   LegendNANA
18:30 20.8 14.3 66 0.0 20 24   101.44     LegendNANA
19:30 20.1 14.5 70 0.0 21 29   101.45     LegendNANA
20:30 19.0 14.6 76 0.0 20 20   101.46     LegendNANA
21:30 17.7 14.5 82 0.0 20 23   101.48     LegendNANA
22:30 18.0 14.8 82 0.0 20 24   101.44     LegendNANA
23:30 16.8 14.4 86 0.0 19 21   101.39     LegendNANA

Notes on Data Quality.

Legend

  • E = Estimated
  • M = Missing
  • NA = Not Available*
  • [empty] = Indicates an unobserved value
Date modified: